Location: Marcé
(47.5801°N, 0.3280°W)
Time: 08:58:52
(UTC+01:00)

BlueWalker 3 - Pass Details

Date: 01 December 2022
Orbit: 499 x 517 km, 53.2° (Epoch: 29 January)

Event Time Altitude Azimuth Distance (km) Brightness Sun altitude
Rises 18:49:27 0° 278° (W) 2,631 6.9 -15.8°
Reaches altitude 10° 18:51:48 10° 287° (WNW) 1,740 5.6 -16.2°
Maximum altitude 18:55:27 36° 355° (N) 830 2.9 -16.8°
Enters shadow 18:56:39 29° 33° (NNE) 967 3.0 -17.0°
